Weather History for KAVK - June, 2013

Change the Weather History Date:

Wednesday, June 12, 2013

  Actual Average Record
Temperature  
Mean Temperature 88 °F -  
Max Temperature 100 °F 91 °F 105 °F (1953)
Min Temperature 75 °F 64 °F 49 °F (1955)
Cooling Degree Days 22    
Growing Degree Days 38 (Base 50)    
Moisture  
Dew Point 64 °F    
Average Humidity 50    
Maximum Humidity 69    
Minimum Humidity 29    
Precipitation  
Precipitation 0.00 in - - ()
Sea Level Pressure  
Sea Level Pressure 29.87 in    
Wind  
Wind Speed 12 mph (SW)    
Max Wind Speed 21 mph    
Max Gust Speed 30 mph    
Visibility 10 miles    
Events      
Averages and records for this station are not official NWS values.
T = Trace of Precipitation, MM = Missing Value Source: NWS Daily Summary

Daily Weather History Graph

Daily Weather History Graph

Search for Another Location

Airport or City:

Trip Planner

Search our weather history database for the weather conditions in past years. The results will help you decide how hot, cold, wet, or windy it might be!

Date:

Astronomy

Jun. 12, 2013 Rise Set
Actual Time 6:15 AM CDT 8:54 PM CDT
Civil Twilight 5:44 AM CDT 9:24 PM CDT
Nautical Twilight 5:06 AM CDT 10:03 PM CDT
Astronomical Twilight 4:23 AM CDT 10:45 PM CDT
Moon 9:51 AM CDT (6/12) 11:36 PM CDT (6/12)
Length of Visible Light 15h 40m
Length of Day
14h 39m
Waxing Crescent, 14% of the Moon is Illuminated
Jun 12
Waxing Crescent
Jun 16
First Quarter
Jun 23
Full
Jun 29
Last Quarter
Jul 8
New

Hourly Weather History & Observations

Time (CDT) Temp. Heat Index Dew Point Humidity Pressure Visibility Wind Dir Wind Speed Gust Speed Precip Events Conditions
12:05 AM 77.0 °F - 64.4 °F 65% 29.81 in 10.0 mi South 16.1 mph 20.7 mph N/A   Clear
12:25 AM 77.0 °F - 64.4 °F 65% 29.81 in 10.0 mi South 16.1 mph 21.9 mph N/A   Clear
12:45 AM 78.8 °F - 64.4 °F 61% 29.81 in 10.0 mi South 17.3 mph 24.2 mph N/A   Clear
1:05 AM 78.8 °F - 64.4 °F 61% 29.81 in 10.0 mi South 15.0 mph 21.9 mph N/A   Clear
1:25 AM 77.0 °F - 64.4 °F 65% 29.82 in 10.0 mi SSW 13.8 mph - N/A   Clear
1:45 AM 77.0 °F - 64.4 °F 65% 29.83 in 10.0 mi SSW 11.5 mph - N/A   Clear
2:05 AM 77.0 °F - 64.4 °F 65% 29.84 in 10.0 mi SSW 10.4 mph - N/A   Clear
2:25 AM 77.0 °F - 64.4 °F 65% 29.84 in 10.0 mi SSW 10.4 mph - N/A   Clear
2:45 AM 77.0 °F - 64.4 °F 65% 29.83 in 10.0 mi SSW 12.7 mph - N/A   Clear
3:05 AM 77.0 °F - 64.4 °F 65% 29.84 in 10.0 mi SSW 11.5 mph - N/A   Clear
3:25 AM 77.0 °F - 64.4 °F 65% 29.84 in 10.0 mi SSW 11.5 mph - N/A   Clear
3:45 AM 77.0 °F - 64.4 °F 65% 29.84 in 10.0 mi SSW 11.5 mph - N/A   Clear
4:05 AM 75.2 °F - 64.4 °F 69% 29.84 in 10.0 mi SSW 12.7 mph - N/A   Clear
4:25 AM 75.2 °F - 64.4 °F 69% 29.83 in 10.0 mi SSW 13.8 mph - N/A   Clear
4:45 AM 75.2 °F - 64.4 °F 69% 29.83 in 10.0 mi South 12.7 mph - N/A   Clear
5:05 AM 75.2 °F - 64.4 °F 69% 29.83 in 10.0 mi South 11.5 mph - N/A   Clear
5:25 AM 75.2 °F - 64.4 °F 69% 29.83 in 10.0 mi SSW 15.0 mph 19.6 mph N/A   Clear
5:45 AM 75.2 °F - 64.4 °F 69% 29.84 in 10.0 mi SSW 17.3 mph 20.7 mph N/A   Clear
6:05 AM 75.2 °F - 64.4 °F 69% 29.84 in 10.0 mi SSW 16.1 mph 19.6 mph N/A   Clear
6:25 AM 75.2 °F - 62.6 °F 65% 29.85 in 10.0 mi SW 15.0 mph 21.9 mph N/A   Clear
6:45 AM 75.2 °F - 64.4 °F 69% 29.86 in 10.0 mi SSW 15.0 mph - N/A   Clear
7:05 AM 75.2 °F - 64.4 °F 69% 29.86 in 10.0 mi SSW 10.4 mph - N/A   Clear
7:25 AM 75.2 °F - 64.4 °F 69% 29.87 in 10.0 mi SSW 10.4 mph - N/A   Clear
7:45 AM 78.8 °F - 62.6 °F 57% 29.86 in 10.0 mi SSW 15.0 mph 18.4 mph N/A   Clear
8:05 AM 80.6 °F 81.8 °F 62.6 °F 54% 29.87 in 10.0 mi SW 16.1 mph 24.2 mph N/A   Clear
8:25 AM 80.6 °F 81.8 °F 62.6 °F 54% 29.88 in 10.0 mi SW 18.4 mph 28.8 mph N/A   Clear
8:45 AM 82.4 °F 83.4 °F 62.6 °F 51% 29.88 in 10.0 mi SW 20.7 mph 26.5 mph N/A   Clear
9:05 AM 82.4 °F 83.4 °F 62.6 °F 51% 29.89 in 10.0 mi SW 20.7 mph 27.6 mph N/A   Clear
9:25 AM 84.2 °F 85.0 °F 62.6 °F 48% 29.88 in 10.0 mi SW 19.6 mph 29.9 mph N/A   Clear
9:45 AM 86.0 °F 86.6 °F 62.6 °F 45% 29.88 in 10.0 mi SW 18.4 mph 26.5 mph N/A   Clear
10:05 AM 87.8 °F 88.5 °F 62.6 °F 43% 29.88 in 10.0 mi SW 16.1 mph 24.2 mph N/A   Clear
10:25 AM 91.4 °F 90.7 °F 59.0 °F 34% 29.89 in 10.0 mi West 19.6 mph 25.3 mph N/A   Clear
10:45 AM 91.4 °F 91.4 °F 60.8 °F 36% 29.88 in 10.0 mi WSW 15.0 mph 24.2 mph N/A   Clear
11:05 AM 91.4 °F 91.4 °F 60.8 °F 36% 29.89 in 10.0 mi WSW 16.1 mph 23.0 mph N/A   Clear
11:25 AM 93.2 °F 94.1 °F 62.6 °F 36% 29.89 in 10.0 mi WSW 13.8 mph 20.7 mph N/A   Clear
11:45 AM 93.2 °F 94.1 °F 62.6 °F 36% 29.89 in 10.0 mi West 12.7 mph 20.7 mph N/A   Clear
12:05 PM 95.0 °F 96.0 °F 62.6 °F 34% 29.89 in 10.0 mi WSW 15.0 mph 19.6 mph N/A   Clear
12:25 PM 95.0 °F 96.0 °F 62.6 °F 34% 29.90 in 10.0 mi West 12.7 mph 16.1 mph N/A   Clear
12:45 PM 95.0 °F 96.0 °F 62.6 °F 34% 29.90 in 10.0 mi WSW 11.5 mph 16.1 mph N/A   Clear
1:05 PM 96.8 °F 98.0 °F 62.6 °F 32% 29.90 in 10.0 mi SW 8.1 mph - N/A   Clear
1:25 PM 98.6 °F 100.0 °F 62.6 °F 30% 29.90 in 10.0 mi WSW 8.1 mph 17.3 mph N/A   Clear
1:45 PM 98.6 °F 101.0 °F 64.4 °F 32% 29.90 in 10.0 mi WSW 6.9 mph - N/A   Clear
2:05 PM 98.6 °F 100.0 °F 62.6 °F 30% 29.89 in 10.0 mi WSW 8.1 mph - N/A   Clear
2:25 PM 100.4 °F 102.4 °F 62.6 °F 29% 29.89 in 10.0 mi NNW 3.5 mph - N/A   Clear
2:45 PM 100.4 °F 102.4 °F 62.6 °F 29% 29.89 in 10.0 mi West 3.5 mph - N/A   Clear
3:05 PM 100.4 °F 102.4 °F 62.6 °F 29% 29.88 in 10.0 mi Calm Calm - N/A   Clear
3:25 PM 100.4 °F 103.6 °F 64.4 °F 31% 29.88 in 4.0 mi West 6.9 mph - N/A   Haze
3:45 PM 100.4 °F 102.4 °F 62.6 °F 29% 29.88 in 10.0 mi South 5.8 mph 16.1 mph N/A   Clear
4:05 PM 100.4 °F 102.4 °F 62.6 °F 29% 29.88 in 10.0 mi South 11.5 mph - N/A   Clear
4:25 PM 100.4 °F 102.4 °F 62.6 °F 29% 29.87 in 10.0 mi SW 5.8 mph - N/A   Clear
4:45 PM 100.4 °F 102.4 °F 62.6 °F 29% 29.87 in 10.0 mi WSW 4.6 mph - N/A   Clear
5:05 PM 100.4 °F 102.4 °F 62.6 °F 29% 29.87 in 10.0 mi South 8.1 mph - N/A   Clear
5:25 PM 100.4 °F 102.4 °F 62.6 °F 29% 29.87 in 10.0 mi SW 8.1 mph - N/A   Clear
5:45 PM 100.4 °F 102.4 °F 62.6 °F 29% 29.87 in 10.0 mi SSW 8.1 mph - N/A   Clear
6:05 PM 98.6 °F 101.0 °F 64.4 °F 32% 29.87 in 10.0 mi SW 5.8 mph - N/A   Clear
6:25 PM 98.6 °F 100.0 °F 62.6 °F 30% 29.87 in 10.0 mi WSW 4.6 mph - N/A   Clear
6:45 PM 96.8 °F 99.0 °F 64.4 °F 34% 29.87 in 10.0 mi SW 6.9 mph - N/A   Clear
7:05 PM 95.0 °F 98.5 °F 66.2 °F 39% 29.87 in 10.0 mi SW 5.8 mph - N/A   Clear
7:25 PM 95.0 °F 96.0 °F 62.6 °F 34% 29.88 in 9.0 mi SW 6.9 mph - N/A   Clear
7:45 PM 93.2 °F 96.2 °F 66.2 °F 41% 29.88 in 7.0 mi SSW 8.1 mph - N/A   Clear
8:05 PM 89.6 °F 92.2 °F 66.2 °F 46% 29.88 in 7.0 mi SW 8.1 mph - N/A   Clear
8:25 PM 86.0 °F 89.4 °F 68.0 °F 55% 29.89 in 5.0 mi SSW 8.1 mph - N/A   Haze
8:45 PM 84.2 °F 87.3 °F 68.0 °F 58% 29.89 in 10.0 mi SSW 6.9 mph - N/A   Clear
9:05 PM 82.4 °F 85.4 °F 68.0 °F 62% 29.90 in 9.0 mi SSW 5.8 mph - N/A   Clear
9:25 PM 82.4 °F 84.6 °F 66.2 °F 58% 29.90 in 10.0 mi SSW 5.8 mph - N/A   Clear
9:45 PM 84.2 °F 86.6 °F 66.2 °F 55% 29.91 in 10.0 mi SSW 5.8 mph - N/A   Clear
10:05 PM 80.6 °F 82.7 °F 66.2 °F 61% 29.91 in 10.0 mi SSW 5.8 mph - N/A   Clear
10:25 PM 82.4 °F 84.6 °F 66.2 °F 58% 29.92 in 10.0 mi SSW 4.6 mph - N/A   Clear
10:45 PM 80.6 °F 82.7 °F 66.2 °F 61% 29.93 in 10.0 mi SW 5.8 mph - N/A   Clear
11:05 PM 80.6 °F 82.3 °F 64.4 °F 58% 29.93 in 10.0 mi WSW 5.8 mph - N/A   Clear
11:25 PM 78.8 °F - 66.2 °F 65% 29.94 in 10.0 mi South 6.9 mph - N/A   Clear
11:45 PM 77.0 °F - 66.2 °F 69% 29.95 in 10.0 mi South 8.1 mph - N/A   Clear